Temp
17 17 17 17 17 17 17 17 17 17 17 16 16 16 16 16 16 15 14 14 14 14 14 14 14 13 13 14 14 14 14 14 14 14 14 13 13 13 13 13 13 14 13
17 17 17 17 17 17 17 17 17 17 16 16 16 15 16 15 16 16 15 14 14 14 14 14 14 13 13 13 13 13 14 14 14 14 13 13 13 13 13 13 13 13 13
16 16 17 16 16 16 17 16 16 16 16 16 16 15 16 15 15 14 15 14 14 14 13 13 13 13 13 13 13 13 13 13 14 14 13 13 13 13 13 13 13 13 13
16 16 16 16 15 15 16 16 16 16 16 16 16 15 15 15 15 15 15 15 14 14 14 13 14 13 12 13 12 12 12 13 13 13 13 13 13 13 13 12 13 13 12
15 16 16 16 15 15 16 16 16 16 16 16 16 15 15 16 16 15 15 15 14 14 14 13 13 13 13 13 13 12 12 12 12 12 13 12 13 13 13 13 12 13 12
15 16 16 15 15 15 16 16 16 16 16 16 15 15 15 15 15 16 15 15 15 14 14 14 14 13 13 13 12 12 12 12 11 11 12 12 12 12 12 12 12 12 12
15 15 15 15 15 15 16 16 16 15 16 16 15 15 15 15 15 15 15 15 15 14 14 14 14 13 13 12 12 12 12 12 11 11 11 12 12 13 12 12 12 12 12
16 16 16 16 15 15 15 16 15 15 15 15 17 17 18 16 16 15 15 15 15 15 14 14 14 13 13 13 13 12 12 12 12 12 11 12 12 12 12 12 12 12 12
16 17 16 16 16 15 15 15 16 16 14 14 15 17 17 19 17 15 15 15 15 14 14 14 13 13 13 13 12 12 12 12 12 12 12 11 12 12 12 12 12 12 12
16 16 16 16 16 16 16 16 15 16 15 15 14 15 15 17 19 18 16 15 15 15 14 14 14 13 13 13 13 12 12 12 12 12 12 12 12 11 12 11 11 11 11
15 15 15 15 16 16 16 16 16 15 15 16 15 14 14 15 16 18 19 17 15 15 15 14 15 14 13 13 12 13 13 12 12 12 11 12 12 12 12 12 12 11 11
15 14 14 14 15 15 15 15 16 15 15 15 15 15 15 17 17 17 18 16 16 16 15 15 15 15 14 14 14 13 13 12 12 12 12 12 11 12 12 11 11 12 10
15 15 14 14 14 15 15 15 16 15 15 15 16 16 15 16 17 17 17 17 17 16 15 15 15 15 15 14 13 14 13 13 12 12 12 11 11 11 11 11 11 11 11
15 15 15 15 16 15 15 15 15 14 14 15 15 15 16 16 15 16 16 17 16 16 16 16 15 15 15 15 14 15 14 13 13 12 12 12 11 11 11 11 11 12 11
14 14 14 15 15 16 17 15 15 15 14 14 15 14 15 15 15 15 15 15 16 17 18 17 15 15 15 15 15 15 14 14 13 12 12 12 11 11 11 11 11 11 11
13 13 13 14 14 14 15 15 15 15 15 14 14 14 15 14 15 14 14 15 15 15 16 17 15 14 14 15 15 14 14 14 14 13 12 12 11 11 11 11 11 11 11
11 11 12 13 13 13 14 14 14 14 15 15 14 14 14 14 14 14 14 14 14 14 15 16 14 14 13 13 14 14 14 14 14 15 14 13 12 11 11 11 11 11 11
10 11 11 12 13 13 13 13 13 13 14 14 14 14 14 14 14 14 14 14 14 14 14 15 15 14 13 14 13 13 13 14 14 14 14 14 13 11 11 11 11 11 11
8 10 10 11 12 12 13 13 12 12 13 14 14 14 14 14 14 13 13 13 13 13 13 13 14 14 13 13 12 12 13 12 13 13 14 14 13 12 11 11 11 11 11
8 9 9 10 11 12 12 12 12 12 12 13 14 14 14 14 14 13 13 13 13 12 12 11 12 12 13 13 12 12 12 12 12 13 13 13 13 13 12 12 11 11 11
6 7 7 9 10 11 11 11 11 11 12 13 13 13 13 13 13 13 12 13 13 13 11 11 11 11 11 11 11 13 11 11 12 11 11 13 13 13 13 13 12 12 11
4 6 6 7 9 10 10 11 11 12 12 12 13 12 12 13 13 13 13 13 13 13 12 11 11 11 12 12 11 11 10 11 11 12 10 11 12 12 12 13 13 12 12
3 4 5 7 7 9 10 10 10 11 10 11 12 12 12 13 13 13 13 12 12 12 12 12 11 11 11 11 11 11 10 9 10 11 10 10 11 11 12 12 12 12 12
1 2 4 5 7 7 9 10 10 10 11 11 11 12 12 12 12 12 13 13 12 12 12 12 11 11 11 11 11 11 10 10 10 9 9 9 10 10 11 11 12 12 12
0 1 2 3 5 6 7 8 9 10 10 10 10 11 11 11 12 12 11 11 11 11 12 11 11 11 11 11 10 10 9 9 8 9 9 8 9 10 10 11 11 12 11
-2 0 2 3 4 5 5 6 7 8 9 9 9 10 10 11 11 11 10 10 10 11 11 10 11 10 11 11 10 10 10 9 8 8 10 8 8 9 9 10 10 10 10
Height
864 867 871 874 876 879 881 883 885 886 888 889 890 890 891 892 894 895 897 897 897 898 898 897 897 897 896 895 895 894 893 893 892 891 890 890 889 889 887 886 885 884 881
865 867 871 874 877 879 882 884 886 888 890 891 892 893 894 895 896 897 899 899 900 900 900 900 900 899 899 899 898 897 896 896 895 894 894 893 892 891 891 889 888 887 885
865 867 871 874 877 880 883 885 888 890 891 893 894 896 896 897 898 899 900 901 902 901 902 902 902 902 901 901 901 900 899 898 897 897 896 896 895 894 893 892 891 890 889
864 867 870 874 877 880 883 886 888 891 893 894 896 897 898 899 900 901 902 902 903 903 903 903 903 903 903 903 903 902 901 900 900 899 898 898 898 896 896 895 894 893 892
862 866 870 873 877 880 883 886 889 891 893 895 897 899 900 900 901 902 903 904 904 904 904 904 904 904 904 904 905 904 903 903 902 901 901 900 899 898 898 897 896 896 895
861 865 869 872 876 879 883 886 888 891 893 896 898 900 901 901 902 903 904 905 905 905 905 905 905 905 905 905 905 904 904 904 903 903 902 901 901 900 899 899 898 898 897
860 862 866 871 874 878 881 884 887 890 893 896 898 900 901 902 903 903 904 904 905 905 906 906 906 905 905 904 905 905 905 905 904 904 903 903 901 901 901 900 901 900 899
858 861 864 868 872 876 880 883 885 888 892 894 896 897 898 902 902 903 904 904 904 905 905 905 906 905 905 905 905 904 905 905 905 905 904 904 903 903 902 902 902 901 901
856 859 863 867 870 874 877 880 883 885 889 893 895 895 897 895 899 901 902 903 903 903 904 904 904 905 905 905 904 904 904 904 904 905 905 904 904 904 904 903 903 903 903
854 858 862 865 869 871 875 878 882 885 887 890 893 894 895 896 896 897 901 901 902 902 902 902 903 903 903 903 903 904 904 904 904 904 905 905 905 904 905 905 904 904 904
852 856 860 863 867 869 873 876 879 883 884 887 889 892 894 896 897 897 895 899 900 900 900 900 900 900 900 900 900 901 902 903 904 904 904 904 904 904 903 904 904 904 904
849 853 858 861 864 868 871 874 877 881 883 885 888 889 891 892 894 895 895 897 898 899 899 899 898 898 897 897 897 898 899 900 902 902 903 903 903 903 903 903 903 903 904
845 849 854 858 862 865 868 871 875 877 879 882 883 886 889 890 891 893 893 894 895 897 897 896 897 896 896 895 895 895 896 898 898 899 901 902 902 901 902 902 902 902 902
843 846 851 855 858 862 865 869 871 874 876 878 880 883 886 887 888 890 891 892 893 894 895 895 894 894 894 894 894 893 893 894 895 896 897 898 900 899 900 901 901 901 901
841 844 848 852 855 858 861 864 867 869 871 873 875 878 882 882 884 886 888 889 890 890 889 890 893 891 891 892 892 892 891 891 892 893 894 895 896 896 897 898 899 900 900
837 841 845 848 851 854 857 860 863 866 867 869 870 873 875 877 878 881 883 886 888 888 887 887 889 890 888 889 889 889 889 889 888 889 890 891 892 893 893 895 896 897 897
836 838 841 844 847 849 852 855 858 861 863 865 866 868 870 873 874 876 878 881 883 884 884 884 886 886 885 885 885 885 886 886 886 886 886 887 887 889 890 891 892 893 894
834 836 838 841 844 846 849 851 853 856 858 860 862 864 866 868 869 872 873 876 877 879 881 881 881 882 882 882 882 882 881 882 882 881 882 882 883 884 885 886 886 887 888
833 835 836 837 840 842 845 847 848 851 854 856 858 859 861 863 865 866 867 870 872 874 876 877 877 878 878 878 878 877 877 877 876 877 877 877 878 879 880 881 881 882 883
831 832 833 834 836 838 840 843 845 846 849 851 852 854 855 857 859 861 862 864 867 869 871 872 872 873 874 874 873 874 874 873 871 871 872 872 873 874 874 875 876 877 877
830 830 831 831 832 834 836 838 839 841 844 846 847 848 850 851 853 855 857 858 861 863 865 866 867 868 869 869 869 870 869 869 869 868 866 866 867 867 868 869 870 870 871
828 828 829 829 830 830 832 833 835 836 838 840 841 843 844 846 847 849 852 854 856 857 859 860 861 862 862 864 864 864 865 865 864 861 862 860 860 860 861 862 863 865 866
826 826 826 826 827 828 829 829 831 831 832 833 836 837 839 841 844 844 846 849 851 852 853 855 855 856 857 858 859 859 860 860 858 858 858 856 854 854 856 857 858 859 860
825 824 824 824 824 824 824 825 826 827 828 829 831 832 834 836 839 841 840 842 844 845 846 847 848 850 851 852 853 854 854 853 853 852 853 852 850 850 850 851 852 853 855
825 824 823 822 822 821 821 821 822 822 823 825 827 829 830 831 833 834 837 836 837 838 840 841 842 843 844 845 846 847 846 846 845 846 846 848 846 846 847 847 847 848 850
824 824 823 822 821 821 820 818 818 818 819 820 822 823 824 826 827 829 830 832 831 832 834 834 835 836 837 837 838 839 840 839 841 841 840 843 842 844 844 842 843 844 845
Wind_Speed
17 18 17 16 16 16 14 12 12 12 12 12 13 13 13 13 13 13 14 11 10 13 14 15 15 14 10 11 10 13 14 15 16 14 16 18 19 18 17 17 17 17 17
17 17 17 15 17 17 14 13 12 12 11 11 12 13 12 11 11 11 10 10 14 13 12 11 12 12 13 11 10 10 8 12 13 17 16 17 18 18 16 15 16 16 16
18 18 17 16 17 17 15 14 12 11 11 10 11 11 11 11 11 10 9 9 10 10 10 13 12 11 10 11 11 8 6 8 8 10 13 13 14 16 15 14 15 14 15
18 18 17 16 16 17 15 14 12 11 10 10 10 9 9 10 9 9 7 7 7 7 8 10 8 8 12 12 11 10 8 4 5 6 6 8 9 11 11 11 11 12 13
18 17 17 17 17 15 16 15 13 11 11 10 9 7 7 8 8 7 7 6 4 4 4 5 8 6 8 8 7 6 8 7 4 2 3 7 5 8 8 8 9 10 11
19 16 17 17 17 16 17 16 13 11 10 11 10 7 5 5 4 4 4 4 4 3 2 2 3 2 2 2 5 6 7 6 7 5 6 8 7 5 5 6 8 9 10
19 18 18 19 17 16 18 18 14 13 12 12 11 6 4 5 3 3 3 1 1 1 2 1 2 1 2 2 2 2 4 4 5 7 6 7 6 7 8 7 6 8 9
22 21 21 22 21 19 19 19 17 14 10 14 8 7 3 5 6 6 5 4 3 3 2 2 1 1 1 1 2 1 1 1 2 3 5 4 6 8 6 6 5 5 6
24 23 21 21 22 24 20 22 22 20 11 15 9 3 3 2 4 5 7 6 6 6 5 5 4 4 3 3 3 3 2 1 3 1 2 3 1 1 1 5 5 3 3
25 24 23 22 23 25 25 25 19 16 12 14 10 10 1 2 2 3 4 6 6 7 8 7 7 7 7 5 5 6 6 3 2 2 3 2 2 1 0 0 3 2 2
21 20 20 23 25 25 26 27 24 18 18 16 14 9 6 4 4 4 3 3 4 6 6 5 7 9 10 10 9 8 6 6 5 6 5 5 4 3 5 3 2 2 1
24 22 18 18 23 21 21 20 23 18 17 17 15 14 11 6 9 7 6 4 4 4 4 6 5 6 7 10 13 13 10 8 8 8 8 8 6 7 5 7 5 4 3
19 18 18 17 17 18 18 19 24 19 21 25 24 22 16 13 9 9 8 5 5 5 5 6 7 6 7 7 9 11 13 13 11 10 9 9 9 8 8 9 7 6 5
13 16 16 15 16 16 17 17 16 18 18 24 27 23 17 15 13 13 11 8 5 7 7 10 7 6 8 9 7 8 11 14 16 14 13 11 12 14 10 11 10 9 9
11 12 13 15 17 20 21 18 17 17 17 19 26 28 22 18 16 15 12 12 11 7 7 7 6 5 5 9 9 9 9 11 14 17 17 16 15 16 14 14 14 12 10
8 11 13 15 16 16 17 19 16 16 16 16 19 26 27 20 22 18 15 13 13 12 9 11 9 9 8 12 13 12 13 11 11 14 18 18 18 18 17 16 16 16 15
10 12 12 13 14 15 16 18 18 16 17 17 16 18 20 18 15 16 14 14 14 13 15 16 11 11 11 11 13 15 15 15 13 13 15 17 18 20 19 19 19 19 18
11 12 12 12 15 15 16 17 18 18 19 20 19 17 18 16 17 15 15 16 16 15 15 16 15 14 12 13 13 13 16 19 19 18 16 16 16 19 20 21 21 21 22
4 6 8 11 14 16 16 16 18 19 19 21 21 21 18 17 18 16 17 18 16 16 16 15 15 12 13 11 12 14 17 18 20 21 19 19 18 18 20 21 22 22 23
7 10 12 13 12 14 16 17 16 18 18 20 21 22 21 21 20 18 20 21 19 17 18 16 19 17 14 14 14 14 16 15 17 19 21 21 20 19 20 21 22 22 23
4 5 8 10 12 12 14 16 18 21 19 20 20 19 21 21 21 19 20 22 22 20 20 20 18 14 15 15 15 13 15 15 16 16 19 23 24 24 22 21 22 22 22
3 4 4 6 7 11 14 18 19 17 19 19 20 20 21 23 21 20 20 20 22 22 22 19 17 16 20 19 19 20 15 14 9 12 15 19 24 26 26 23 22 21 20
5 4 4 6 7 10 15 13 17 19 19 19 20 20 20 22 21 18 18 20 23 24 25 20 20 20 20 20 18 17 16 17 18 18 16 14 17 25 25 23 23 22 22
8 7 6 7 9 9 10 15 15 17 19 17 17 22 21 21 22 23 23 23 26 28 31 30 28 25 23 24 21 23 24 23 22 21 20 11 15 14 17 19 19 19 20
9 8 8 8 8 9 9 11 12 15 16 19 17 16 20 22 23 25 21 20 19 19 25 25 27 28 29 30 29 27 26 21 12 15 19 18 14 16 16 17 19 19 19
10 9 9 8 9 9 8 7 9 13 14 17 19 22 24 25 24 25 24 19 21 25 27 27 29 26 27 28 29 27 29 22 15 7 19 18 18 12 5 16 19 18 16
Wind_Direction
154 158 150 156 158 149 144 139 131 124 113 99 88 88 94 95 93 100 90 87 97 90 80 68 74 68 64 70 76 60 58 59 58 66 76 72 65 60 59 53 58 54 56
158 155 157 153 156 156 146 140 133 130 120 109 95 89 97 98 98 98 90 81 79 75 71 70 66 62 64 62 55 70 59 65 63 65 78 73 67 58 55 55 56 55 58
162 158 156 155 157 162 154 144 133 132 128 120 107 97 95 95 103 102 94 88 83 81 85 73 70 60 71 67 68 63 82 59 69 67 66 67 64 58 52 54 58 57 55
164 161 160 160 160 161 162 158 148 142 135 133 124 109 96 94 103 110 100 98 99 89 68 54 53 63 79 66 62 60 60 83 70 52 50 58 49 41 46 55 54 59 57
169 166 168 166 163 163 168 164 162 156 148 144 139 124 111 103 99 104 98 99 99 98 91 34 51 76 68 54 54 50 56 62 61 60 31 36 30 31 39 56 58 61 62
171 169 171 169 169 169 170 171 167 169 161 154 149 141 133 134 119 120 109 103 94 100 90 71 47 51 77 48 49 48 68 50 47 51 50 41 35 39 40 71 67 71 71
178 177 173 174 174 174 174 173 167 160 161 160 151 156 161 183 188 191 184 170 163 133 104 83 29 36 352 343 358 63 72 53 51 45 56 60 47 73 72 86 66 77 71
190 187 186 185 184 172 173 174 171 160 166 174 178 168 174 189 220 213 213 226 233 235 238 236 303 5 305 308 268 325 207 135 77 54 39 63 59 67 66 100 86 71 58
194 194 194 192 192 192 186 190 190 189 168 181 189 199 163 173 156 202 222 230 236 239 241 254 258 260 265 267 286 279 281 241 185 287 99 44 127 60 77 58 92 70 50
200 202 202 201 201 199 201 200 198 195 190 187 198 216 218 127 197 171 207 224 230 244 250 257 259 259 262 259 261 251 264 257 213 189 228 220 352 202 294 212 78 52 54
195 198 202 206 209 207 207 207 207 204 208 197 198 189 211 216 228 251 275 191 218 236 237 245 284 262 256 259 259 261 263 252 238 227 242 255 250 262 248 195 261 287 321
198 201 201 204 213 210 209 210 211 211 216 216 212 210 200 202 222 225 245 234 247 244 225 247 254 266 274 268 266 259 260 258 249 242 234 245 268 240 267 211 215 284 260
189 202 199 203 206 207 212 217 221 219 219 225 230 231 232 236 237 242 245 260 260 260 264 255 251 271 270 276 277 271 256 255 255 250 249 250 248 254 231 235 235 212 283
189 195 197 205 215 210 212 211 215 219 223 233 236 230 230 233 232 235 240 245 249 253 272 275 258 266 277 289 287 287 264 255 252 251 251 250 243 250 249 234 234 256 270
183 191 201 206 211 218 226 220 220 222 220 229 235 237 231 237 235 236 232 235 247 269 268 275 266 249 265 299 296 287 284 272 254 249 251 252 248 251 253 243 238 246 270
206 208 214 215 217 220 218 225 225 227 223 226 232 235 236 237 248 242 235 235 237 242 267 270 258 255 270 288 284 287 285 284 267 253 251 252 251 249 251 248 244 240 245
225 223 222 220 219 221 221 221 226 227 226 226 228 227 230 229 232 229 233 233 234 232 248 262 259 262 263 273 278 280 280 280 282 273 263 255 249 245 248 247 248 247 242
218 224 224 223 220 220 218 217 220 224 228 230 231 230 229 231 230 231 224 230 228 230 234 252 266 266 266 274 267 262 274 272 275 275 265 259 254 244 246 247 248 249 245
221 232 229 225 224 219 217 220 226 226 230 231 232 232 230 228 234 228 226 226 227 228 230 240 260 271 267 268 270 271 273 269 271 269 266 257 253 250 246 247 249 252 249
233 238 239 233 228 225 221 223 227 231 234 235 235 235 234 232 233 233 229 229 227 227 227 234 252 263 260 267 267 271 271 273 270 270 262 257 254 251 252 251 251 252 249
261 269 253 245 237 233 227 224 233 239 235 235 233 232 232 230 232 232 232 238 245 239 234 234 241 249 251 255 253 265 263 272 269 259 262 255 249 248 251 254 254 252 252
302 271 282 263 260 242 233 240 235 238 238 237 235 231 234 236 233 236 244 250 252 248 244 235 234 234 252 251 257 271 258 266 281 261 248 250 249 250 251 253 257 256 255
323 305 282 266 261 248 247 250 246 245 248 237 232 230 229 238 237 236 242 248 251 252 251 243 236 240 251 251 254 257 252 254 252 264 263 266 260 254 252 251 252 249 249
323 316 308 297 273 262 249 247 247 243 248 248 235 232 236 236 240 241 242 246 250 252 250 250 244 250 251 261 257 257 261 269 270 268 259 253 249 241 238 243 246 245 247
320 313 310 309 298 286 276 255 247 246 244 247 243 238 236 242 244 248 247 246 243 251 266 262 257 263 264 262 261 258 246 238 242 257 253 231 246 242 246 243 249 249 251
307 302 301 294 297 301 305 313 267 255 250 249 250 254 249 248 250 254 256 249 249 256 259 261 264 258 258 257 256 251 249 230 224 230 249 223 236 226 230 238 245 249 249